Powrót do katalogu

SL-8 R/B

AktywnyLEO
NORAD 14179·ROCKET BODY·🇷🇺 Russia

Wystrzelony Jul 6, 1983 z Plesetsk Cosmodrome

Loading…

Następne Przeloty (najbliższe 24 godziny)

TLE

ŚwieżeSource: Space-Track

Epoka: Sep 14, 2026, 09:28 UTC

1 14179U 83069J   26257.39488966  .00000042  00000-0  50288-3 0  9995
2 14179  74.0225  45.9258 0131011 300.6020  85.6684 12.26127621933221

Śledź SL-8 R/B w czasie rzeczywistym z AllMySat

Download on the App Store